Change the Weather History Date:

Sunday, February 24, 2013

  Actual Average Record
Temperature  
Mean Temperature 16 °F 25 °F  
Max Temperature 23 °F 33 °F 45 °F (2015)
Min Temperature 9 °F 16 °F -5 °F (2003)
Degree Days  
Heating Degree Days 49 40  
Month to date heating degree days 1046 1018  
Since 1 July heating degree days 5401 5847  
Cooling Degree Days 0 0  
Month to date cooling degree days 0 0  
Year to date cooling degree days 0 0  
Moisture  
Dew Point 9 °F    
Average Humidity 75    
Maximum Humidity 92    
Minimum Humidity 57    
Precipitation  
Precipitation T in 0.02 in 0.15 in (2008)
Month to date precipitation 0.36 0.52  
Year to date precipitation 0.47 1.06  
Sea Level Pressure  
Sea Level Pressure 30.04 in    
Wind  
Wind Speed 9 mph (NW)    
Max Wind Speed 14 mph    
Max Gust Speed -    
Visibility 6 miles    
Events Fog , Snow    
T = Trace of Precipitation, MM = Missing Value Source: NWS Daily Summary

Daily Weather History Graph

Daily Weather History Graph

Search for Another Location

Airport or City:

Trip Planner

Search our weather history database for the weather conditions in past years. The results will help you decide how hot, cold, wet, or windy it might be!

Date:

Astronomy

Feb. 24, 2013 Rise Set
Actual Time 7:05 AM MST 6:09 PM MST
Civil Twilight 6:37 AM MST 6:37 PM MST
Nautical Twilight 6:05 AM MST 7:09 PM MST
Astronomical Twilight 5:33 AM MST 7:41 PM MST
Moon 5:24 PM MST (2/24) 6:05 AM MST (2/24)
Length of Visible Light 11h 59m
Length of Day
11h 03m
Waxing Gibbous, 99% of the Moon is Illuminated
Feb 24
Waxing Gibbous
Feb 25
Full
Mar 4
Last Quarter
Mar 11
New
Mar 19
First Quarter

Hourly Weather History & Observations

Time (MST) Temp. Windchill Dew Point Humidity Pressure Visibility Wind Dir Wind Speed Gust Speed Precip Events Conditions
12:11 AM 14.0 °F 2.9 °F 10.4 °F 86% 29.83 in 2.5 mi West 8.1 mph - 0.00 in Snow Light Snow
12:28 AM 15.8 °F 3.4 °F 10.4 °F 79% 29.83 in 1.5 mi WNW 10.4 mph - 0.00 in Snow Light Snow
12:41 AM 15.8 °F 2.7 °F 10.4 °F 79% 29.83 in 2.0 mi NW 11.5 mph - 0.00 in Snow Light Snow
12:53 AM 15.1 °F 2.5 °F 10.0 °F 80% 29.94 in 2.0 mi WNW 10.4 mph - 0.00 in Snow Light Snow
1:30 AM 15.8 °F 4.2 °F 10.4 °F 79% 29.84 in 3.0 mi NW 9.2 mph - 0.00 in Snow Light Snow
1:48 AM 15.8 °F 8.6 °F 8.6 °F 73% 29.84 in 9.0 mi West 4.6 mph - 0.00 in   Overcast
1:53 AM 14.0 °F 8.2 °F 10.0 °F 84% 29.96 in 10.0 mi WSW 3.5 mph - 0.00 in   Overcast
2:23 AM 15.8 °F 7.2 °F 8.6 °F 73% 29.84 in 6.0 mi WNW 5.8 mph - 0.00 in Snow Light Snow
2:53 AM 15.1 °F 7.7 °F 9.0 °F 77% 29.97 in 3.0 mi NW 4.6 mph - 0.00 in Snow Light Snow
3:03 AM 15.8 °F 8.6 °F 10.4 °F 79% 29.84 in 1.8 mi NW 4.6 mph - 0.00 in Snow Light Snow
3:11 AM 15.8 °F 8.6 °F 10.4 °F 79% 29.85 in 1.2 mi NW 4.6 mph - 0.00 in Snow Light Snow
3:21 AM 15.8 °F - 10.4 °F 79% 29.85 in 1.0 mi Calm Calm - 0.00 in Snow Light Snow
3:34 AM 15.8 °F - 10.4 °F 79% 29.85 in 0.8 mi Calm Calm - 0.00 in Snow Light Snow
3:43 AM 14.0 °F - 10.4 °F 86% 29.85 in 0.5 mi Calm Calm - 0.00 in Fog , Snow Snow
3:53 AM 14.0 °F - 10.9 °F 88% 29.99 in 0.8 mi Calm Calm - 0.00 in Snow Light Snow
4:03 AM 14.0 °F - 10.4 °F 86% 29.86 in 1.0 mi Calm Calm - 0.00 in Snow Light Snow
4:41 AM 12.2 °F 1.7 °F 10.4 °F 92% 29.87 in 1.8 mi North 6.9 mph - 0.00 in Snow Light Snow
4:53 AM 12.9 °F 2.6 °F 10.0 °F 88% 30.03 in 1.8 mi NNW 6.9 mph - 0.00 in Snow Light Snow
5:00 AM 12.2 °F 2.9 °F 10.4 °F 92% 29.88 in 1.5 mi NNW 5.8 mph - 0.00 in Snow Light Snow
5:41 AM 12.2 °F -0.2 °F 8.6 °F 85% 29.89 in 2.0 mi NNW 9.2 mph - 0.00 in Snow Light Snow
5:53 AM 10.9 °F -2.6 °F 8.1 °F 88% 30.07 in 2.0 mi NNW 10.4 mph - 0.00 in Snow Light Snow
6:07 AM 12.2 °F -1.0 °F 8.6 °F 85% 29.90 in 2.5 mi North 10.4 mph - 0.00 in Snow Light Snow
6:19 AM 12.2 °F -2.5 °F 8.6 °F 85% 29.91 in 2.0 mi North 12.7 mph - 0.00 in Snow Light Snow
6:33 AM 12.2 °F -2.5 °F 8.6 °F 85% 29.91 in 3.0 mi North 12.7 mph - 0.00 in Snow Light Snow
6:53 AM 10.9 °F -4.7 °F 8.1 °F 88% 30.10 in 4.0 mi North 13.8 mph - 0.00 in Snow Light Snow
7:10 AM 12.2 °F -3.1 °F 8.6 °F 85% 29.92 in 2.0 mi North 13.8 mph - 0.00 in Snow Light Snow
7:32 AM 10.4 °F -4.1 °F 8.6 °F 92% 29.93 in 3.0 mi North 11.5 mph - 0.00 in Snow Light Snow
7:53 AM 9.0 °F -3.2 °F 7.0 °F 92% 30.14 in 4.0 mi NNW 8.1 mph - 0.00 in Snow Light Snow
8:53 AM 10.9 °F -1.8 °F 7.0 °F 84% 30.16 in 10.0 mi NNW 9.2 mph - 0.00 in   Overcast
9:53 AM 12.0 °F -2.0 °F 6.1 °F 77% 30.18 in 10.0 mi North 11.5 mph - N/A   Overcast
10:37 AM 15.8 °F 4.2 °F 8.6 °F 73% 30.01 in 10.0 mi North 9.2 mph - N/A   Partly Cloudy
10:53 AM 16.0 °F 4.4 °F 7.0 °F 68% 30.18 in 10.0 mi North 9.2 mph - N/A   Clear
11:53 AM 18.0 °F 6.1 °F 9.0 °F 68% 30.18 in 10.0 mi North 10.4 mph - N/A   Clear
12:53 PM 19.0 °F 7.5 °F 9.0 °F 65% 30.18 in 10.0 mi North 10.4 mph - N/A   Clear
1:53 PM 21.0 °F 12.4 °F 9.0 °F 60% 30.17 in 10.0 mi NNW 6.9 mph - N/A   Clear
2:53 PM 21.9 °F 14.5 °F 8.1 °F 55% 30.17 in 10.0 mi NNW 5.8 mph - N/A   Clear
3:53 PM 21.0 °F 10.6 °F 8.1 °F 57% 30.19 in 10.0 mi NNW 9.2 mph - N/A   Clear
4:53 PM 21.0 °F 13.4 °F 8.1 °F 57% 30.22 in 10.0 mi NW 5.8 mph - N/A   Clear
5:53 PM 18.0 °F 11.1 °F 8.1 °F 65% 30.27 in 10.0 mi NNW 4.6 mph - N/A   Mostly Cloudy
6:03 PM 17.6 °F 12.3 °F 8.6 °F 68% 30.09 in 10.0 mi NNW 3.5 mph - N/A   Mostly Cloudy
6:13 PM 17.6 °F 9.3 °F 6.8 °F 63% 30.09 in 10.0 mi NW 5.8 mph - N/A   Scattered Clouds
6:43 PM 15.8 °F 8.6 °F 6.8 °F 68% 30.10 in 10.0 mi NW 4.6 mph - N/A   Mostly Cloudy
6:53 PM 17.1 °F 10.0 °F 8.1 °F 68% 30.29 in 10.0 mi NW 4.6 mph - N/A   Overcast
7:53 PM 17.1 °F - 8.1 °F 68% 30.31 in 10.0 mi Calm Calm - N/A   Overcast
8:46 PM 15.8 °F - 8.6 °F 73% 30.12 in 10.0 mi Calm Calm - 0.00 in   Scattered Clouds
8:53 PM 16.0 °F - 8.1 °F 71% 30.31 in 10.0 mi Calm Calm - 0.00 in   Partly Cloudy
9:53 PM 8.1 °F -5.3 °F 3.9 °F 83% 30.36 in 10.0 mi WSW 9.2 mph - N/A   Clear
10:53 PM 8.1 °F -4.3 °F 3.9 °F 83% 30.34 in 10.0 mi WSW 8.1 mph - N/A   Clear
11:53 PM 8.1 °F -4.3 °F 3.9 °F 83% 30.32 in 10.0 mi SW 8.1 mph - N/A   Clear